VIV236 MMUN-MMMX

Flight info

Callsign VIV236
Flight time 1h 54m
Altitude 36000
Route UDGUV2A UDGUV UT78 MEDOS UT20 UBVOV UT101 ENAGA ENAGA3A
Aircraft A320/M-SDE3FGHIRWY/LB1

Departure

Time 2026-05-06 04:20
Airport Cancún International Airport (MMUN)

Arrival

Time 2026-05-06 06:14
Airport Mexico City Benito Juárez International Airport (MMMX)
Time Latitude Longitude Altitude Speed Heading
2026-05-06 03:56 21.04059 -86.87688 29 ft 0 kts 128°
2026-05-06 04:10 21.04060 -86.87690 29 ft 2 kts 129°
2026-05-06 04:10 21.04078 -86.87707 29 ft 4 kts 167°
2026-05-06 04:10 21.04100 -86.87704 29 ft 2 kts 213°
2026-05-06 04:11 21.04101 -86.87704 29 ft 0 kts 213°
2026-05-06 04:14 21.04084 -86.87716 29 ft 7 kts 213°
2026-05-06 04:15 21.04023 -86.87757 29 ft 14 kts 211°
2026-05-06 04:15 21.03954 -86.87765 30 ft 2 kts 176°
2026-05-06 04:15 21.03936 -86.87777 30 ft 5 kts 258°
2026-05-06 04:15 21.03933 -86.87838 30 ft 11 kts 304°
2026-05-06 04:16 21.03987 -86.87914 30 ft 18 kts 306°
2026-05-06 04:16 21.04068 -86.88044 30 ft 17 kts 304°
2026-05-06 04:16 21.04083 -86.88068 30 ft 18 kts 304°
2026-05-06 04:17 21.04093 -86.88085 30 ft 19 kts 304°
2026-05-06 04:17 21.04181 -86.88222 30 ft 26 kts 304°
2026-05-06 04:17 21.04277 -86.88373 30 ft 22 kts 304°
2026-05-06 04:17 21.04372 -86.88526 29 ft 25 kts 303°
2026-05-06 04:18 21.04473 -86.88687 30 ft 24 kts 304°
2026-05-06 04:18 21.04579 -86.88855 30 ft 25 kts 304°
2026-05-06 04:18 21.04641 -86.89004 30 ft 14 kts 242°
2026-05-06 04:18 21.04570 -86.89051 32 ft 14 kts 215°
2026-05-06 04:19 21.04507 -86.89070 32 ft 2 kts 159°
2026-05-06 04:19 21.04488 -86.89034 32 ft 19 kts 121°
2026-05-06 04:19 21.04282 -86.88697 34 ft 87 kts 124°
2026-05-06 04:19 21.03838 -86.87996 33 ft 138 kts 124°
2026-05-06 04:20 21.03234 -86.87032 181 ft 165 kts 124°
2026-05-06 04:20 21.02652 -86.86017 867 ft 159 kts 122°
2026-05-06 04:20 21.02072 -86.85003 1447 ft 165 kts 124°
2026-05-06 04:20 21.01164 -86.84205 1669 ft 183 kts 166°
2026-05-06 04:21 20.99831 -86.84402 1877 ft 211 kts 201°
2026-05-06 04:21 20.98458 -86.85197 2199 ft 238 kts 208°
2026-05-06 04:21 20.96994 -86.86208 2661 ft 259 kts 211°
2026-05-06 04:21 20.95466 -86.87306 2993 ft 267 kts 211°
2026-05-06 04:22 20.94088 -86.88639 3044 ft 273 kts 232°
2026-05-06 04:22 20.93409 -86.90552 3054 ft 281 kts 258°
2026-05-06 04:22 20.93126 -86.92624 3050 ft 281 kts 259°
2026-05-06 04:23 20.92553 -86.96764 3053 ft 281 kts 259°
2026-05-06 04:23 20.92260 -86.98840 3047 ft 282 kts 258°
2026-05-06 04:23 20.91963 -87.00925 3228 ft 288 kts 258°
2026-05-06 04:23 20.91659 -87.03031 4206 ft 285 kts 259°
2026-05-06 04:24 20.91355 -87.05137 5130 ft 287 kts 259°
2026-05-06 04:24 20.91045 -87.07253 5967 ft 289 kts 259°
2026-05-06 04:24 20.90737 -87.09359 6752 ft 292 kts 260°
2026-05-06 04:24 20.90421 -87.11545 7524 ft 295 kts 260°
2026-05-06 04:25 20.90108 -87.13705 7929 ft 299 kts 260°
2026-05-06 04:25 20.89789 -87.15900 8026 ft 299 kts 261°
2026-05-06 04:25 20.89471 -87.18093 8033 ft 298 kts 261°
2026-05-06 04:25 20.89151 -87.20290 8030 ft 298 kts 261°
2026-05-06 04:26 20.88833 -87.22477 8032 ft 298 kts 261°
2026-05-06 04:26 20.88516 -87.24670 8031 ft 298 kts 261°
2026-05-06 04:26 20.88196 -87.26862 8035 ft 298 kts 261°
2026-05-06 04:26 20.87873 -87.29055 8032 ft 298 kts 260°
2026-05-06 04:27 20.87549 -87.31244 8032 ft 298 kts 260°
2026-05-06 04:27 20.87224 -87.33436 8032 ft 298 kts 260°
2026-05-06 04:27 20.86903 -87.35624 8025 ft 298 kts 260°
2026-05-06 04:27 20.86581 -87.37830 8406 ft 301 kts 261°
2026-05-06 04:28 20.86257 -87.40051 9185 ft 303 kts 261°
2026-05-06 04:28 20.85929 -87.42284 9879 ft 306 kts 261°
2026-05-06 04:28 20.85592 -87.44560 10300 ft 319 kts 261°
2026-05-06 04:28 20.85235 -87.46980 10527 ft 338 kts 261°
2026-05-06 04:29 20.84864 -87.49490 11037 ft 344 kts 261°
2026-05-06 04:29 20.84486 -87.52031 11644 ft 347 kts 261°
2026-05-06 04:29 20.84109 -87.54585 12262 ft 349 kts 262°
2026-05-06 04:29 20.83731 -87.57158 12866 ft 352 kts 262°
2026-05-06 04:30 20.83350 -87.59754 13428 ft 355 kts 262°
2026-05-06 04:30 20.82964 -87.62373 13976 ft 358 kts 262°
2026-05-06 04:30 20.82572 -87.65015 14504 ft 362 kts 262°
2026-05-06 04:30 20.82175 -87.67684 15021 ft 365 kts 262°
2026-05-06 04:31 20.81775 -87.70375 15532 ft 368 kts 263°
2026-05-06 04:31 20.81371 -87.73093 16022 ft 372 kts 263°
2026-05-06 04:31 20.80966 -87.75791 16500 ft 375 kts 263°
2026-05-06 04:31 20.80736 -87.78576 16929 ft 377 kts 273°
2026-05-06 04:32 20.80789 -87.81403 17285 ft 383 kts 274°
2026-05-06 04:32 20.80855 -87.84269 17729 ft 387 kts 274°
2026-05-06 04:32 20.80925 -87.87156 18176 ft 390 kts 274°
2026-05-06 04:32 20.80995 -87.90066 18636 ft 393 kts 274°
2026-05-06 04:33 20.81060 -87.92988 19106 ft 395 kts 274°
2026-05-06 04:33 20.81123 -87.95936 19567 ft 397 kts 274°
2026-05-06 04:33 20.81186 -87.98892 20035 ft 399 kts 274°
2026-05-06 04:33 20.81247 -88.01866 20493 ft 401 kts 273°
2026-05-06 04:34 20.81307 -88.04853 20927 ft 403 kts 273°
2026-05-06 04:34 20.81369 -88.07866 21357 ft 405 kts 273°
2026-05-06 04:34 20.81433 -88.10885 21768 ft 407 kts 273°
2026-05-06 04:34 20.81498 -88.13920 22182 ft 409 kts 273°
2026-05-06 04:35 20.81563 -88.16972 22588 ft 411 kts 273°
2026-05-06 04:35 20.81626 -88.19999 22982 ft 413 kts 273°
2026-05-06 04:35 20.81687 -88.23073 23366 ft 415 kts 273°
2026-05-06 04:35 20.81746 -88.26207 23751 ft 417 kts 273°
2026-05-06 04:36 20.81803 -88.29275 24118 ft 419 kts 273°
2026-05-06 04:36 20.81864 -88.32397 24477 ft 421 kts 273°
2026-05-06 04:36 20.81926 -88.35530 24824 ft 423 kts 273°
2026-05-06 04:36 20.81989 -88.38678 25168 ft 425 kts 273°
2026-05-06 04:37 20.82047 -88.41842 25505 ft 427 kts 272°
2026-05-06 04:37 20.82106 -88.45021 25830 ft 429 kts 272°
2026-05-06 04:37 20.82163 -88.48215 26155 ft 431 kts 272°
2026-05-06 04:37 20.82220 -88.51424 26474 ft 433 kts 272°
2026-05-06 04:38 20.82278 -88.54650 26786 ft 435 kts 272°
2026-05-06 04:38 20.82336 -88.57887 27090 ft 437 kts 272°
2026-05-06 04:38 20.82395 -88.61140 27391 ft 438 kts 272°
2026-05-06 04:38 20.82454 -88.64402 27678 ft 440 kts 272°
2026-05-06 04:39 20.82511 -88.67674 27966 ft 442 kts 272°
2026-05-06 04:39 20.82568 -88.70978 28256 ft 444 kts 272°
2026-05-06 04:39 20.82623 -88.74284 28564 ft 446 kts 272°
2026-05-06 04:39 20.82677 -88.77607 28871 ft 448 kts 272°
2026-05-06 04:40 20.82729 -88.80938 29176 ft 450 kts 272°
2026-05-06 04:40 20.82783 -88.84291 29488 ft 452 kts 272°
2026-05-06 04:40 20.82838 -88.87654 29768 ft 454 kts 272°
2026-05-06 04:40 20.82894 -88.91029 30053 ft 456 kts 272°
2026-05-06 04:41 20.82950 -88.94419 30342 ft 457 kts 272°
2026-05-06 04:41 20.83004 -88.97826 30641 ft 458 kts 272°
2026-05-06 04:41 20.83056 -89.01223 31043 ft 457 kts 271°
2026-05-06 04:41 20.83107 -89.04625 31442 ft 456 kts 272°
2026-05-06 04:42 20.83154 -89.08003 31859 ft 454 kts 271°
2026-05-06 04:42 20.83201 -89.11377 32266 ft 453 kts 272°
2026-05-06 04:42 20.83249 -89.14736 32669 ft 452 kts 272°
2026-05-06 04:42 20.83298 -89.18086 33072 ft 450 kts 272°
2026-05-06 04:43 20.83349 -89.21389 33458 ft 449 kts 272°
2026-05-06 04:43 20.83389 -89.24763 33857 ft 448 kts 271°
2026-05-06 04:43 20.83394 -89.28047 34236 ft 447 kts 271°
2026-05-06 04:43 20.83373 -89.31366 34607 ft 446 kts 271°
2026-05-06 04:44 20.83342 -89.34717 34963 ft 445 kts 271°
2026-05-06 04:44 20.83311 -89.37974 35310 ft 444 kts 271°
2026-05-06 04:44 20.83284 -89.41264 35647 ft 442 kts 271°
2026-05-06 04:44 20.83263 -89.44554 35902 ft 442 kts 271°
2026-05-06 04:45 20.83246 -89.47851 35960 ft 443 kts 271°
2026-05-06 04:45 20.83219 -89.54445 35962 ft 444 kts 271°
2026-05-06 04:46 20.83187 -89.61039 35960 ft 444 kts 271°
2026-05-06 04:46 20.83157 -89.66515 35962 ft 444 kts 271°
2026-05-06 04:47 20.83117 -89.73113 35962 ft 444 kts 271°
2026-05-06 04:47 20.83074 -89.79708 35961 ft 444 kts 271°
2026-05-06 04:48 20.83030 -89.86304 35965 ft 444 kts 271°
2026-05-06 04:48 20.82986 -89.92896 35964 ft 444 kts 271°
2026-05-06 04:49 20.82933 -89.99497 35966 ft 444 kts 271°
2026-05-06 04:49 20.82882 -90.06101 35960 ft 444 kts 270°
2026-05-06 04:50 20.82815 -90.12709 35959 ft 445 kts 270°
2026-05-06 04:50 20.82699 -90.19323 35959 ft 445 kts 270°
2026-05-06 04:51 20.82577 -90.25945 35957 ft 446 kts 270°
2026-05-06 04:51 20.82459 -90.32570 35961 ft 446 kts 270°
2026-05-06 04:52 20.82344 -90.39193 35963 ft 445 kts 270°
2026-05-06 04:52 20.82224 -90.45812 35960 ft 446 kts 270°
2026-05-06 04:53 20.82106 -90.52437 35958 ft 446 kts 270°
2026-05-06 04:53 20.81981 -90.59026 35959 ft 445 kts 270°
2026-05-06 04:54 20.81857 -90.65645 35955 ft 445 kts 270°
2026-05-06 04:54 20.81724 -90.72279 35953 ft 446 kts 269°
2026-05-06 04:55 20.81585 -90.78897 35949 ft 446 kts 269°
2026-05-06 04:55 20.81443 -90.85521 35945 ft 445 kts 269°
2026-05-06 04:56 20.81311 -90.92142 35945 ft 445 kts 269°
2026-05-06 04:56 20.81180 -90.98767 35942 ft 445 kts 269°
2026-05-06 04:57 20.81037 -91.05382 35944 ft 446 kts 269°
2026-05-06 04:57 20.80894 -91.12007 35943 ft 446 kts 269°
2026-05-06 04:58 20.80751 -91.18635 35940 ft 446 kts 269°
2026-05-06 04:58 20.80597 -91.25263 35935 ft 446 kts 269°
2026-05-06 04:59 20.80446 -91.31892 35934 ft 447 kts 269°
2026-05-06 04:59 20.80285 -91.38490 35934 ft 447 kts 269°
2026-05-06 05:00 20.80123 -91.45132 35933 ft 447 kts 269°
2026-05-06 05:00 20.79964 -91.51779 35932 ft 447 kts 269°
2026-05-06 05:01 20.79803 -91.58425 35937 ft 447 kts 269°
2026-05-06 05:01 20.79633 -91.65069 35932 ft 447 kts 269°
2026-05-06 05:02 20.79463 -91.71713 35932 ft 448 kts 269°
2026-05-06 05:02 20.79294 -91.78369 35929 ft 448 kts 269°
2026-05-06 05:03 20.79122 -91.85019 35935 ft 448 kts 269°
2026-05-06 05:03 20.78943 -91.91645 35933 ft 448 kts 269°
2026-05-06 05:04 20.78765 -91.98296 35928 ft 448 kts 269°
2026-05-06 05:04 20.78586 -92.04954 35929 ft 448 kts 268°
2026-05-06 05:05 20.78397 -92.11609 35924 ft 448 kts 268°
2026-05-06 05:05 20.78205 -92.18277 35925 ft 448 kts 268°
2026-05-06 05:06 20.78017 -92.24940 35926 ft 448 kts 268°
2026-05-06 05:06 20.77826 -92.31595 35926 ft 448 kts 268°
2026-05-06 05:07 20.77624 -92.38253 35927 ft 448 kts 268°
2026-05-06 05:07 20.77426 -92.44880 35927 ft 448 kts 268°
2026-05-06 05:08 20.77228 -92.51532 35923 ft 448 kts 268°
2026-05-06 05:08 20.77027 -92.58186 35922 ft 447 kts 268°
2026-05-06 05:09 20.76829 -92.64835 35922 ft 448 kts 268°
2026-05-06 05:09 20.76621 -92.71480 35911 ft 447 kts 268°
2026-05-06 05:10 20.76408 -92.78127 35905 ft 447 kts 268°
2026-05-06 05:10 20.76186 -92.84774 35903 ft 447 kts 268°
2026-05-06 05:11 20.75971 -92.91415 35902 ft 447 kts 268°
2026-05-06 05:11 20.75760 -92.98016 35900 ft 447 kts 268°
2026-05-06 05:12 20.75544 -93.04653 35900 ft 447 kts 268°
2026-05-06 05:12 20.75328 -93.11292 35900 ft 447 kts 268°
2026-05-06 05:13 20.75098 -93.17930 35899 ft 447 kts 268°
2026-05-06 05:13 20.74861 -93.24568 35900 ft 447 kts 268°
2026-05-06 05:14 20.74633 -93.31206 35900 ft 447 kts 268°
2026-05-06 05:14 20.74399 -93.37848 35900 ft 447 kts 268°
2026-05-06 05:15 20.74227 -93.44488 35899 ft 447 kts 269°
2026-05-06 05:15 20.74282 -93.51134 35897 ft 447 kts 271°
2026-05-06 05:16 20.74393 -93.57773 35892 ft 447 kts 270°
2026-05-06 05:16 20.74447 -93.64417 35890 ft 447 kts 270°
2026-05-06 05:17 20.74458 -93.71067 35889 ft 447 kts 270°
2026-05-06 05:17 20.74483 -93.77718 35886 ft 448 kts 270°
2026-05-06 05:18 20.74506 -93.84365 35888 ft 448 kts 270°
2026-05-06 05:18 20.74524 -93.90974 35888 ft 447 kts 270°
2026-05-06 05:19 20.74549 -93.97618 35886 ft 447 kts 270°
2026-05-06 05:19 20.74559 -94.04264 35888 ft 448 kts 269°
2026-05-06 05:20 20.74568 -94.10920 35891 ft 447 kts 269°
2026-05-06 05:20 20.74587 -94.17567 35890 ft 447 kts 269°
2026-05-06 05:21 20.74593 -94.24209 35891 ft 447 kts 269°
2026-05-06 05:21 20.74591 -94.30846 35891 ft 447 kts 269°
2026-05-06 05:22 20.74592 -94.37478 35890 ft 446 kts 269°
2026-05-06 05:22 20.74602 -94.44110 35889 ft 446 kts 269°
2026-05-06 05:23 20.74603 -94.50730 35889 ft 446 kts 269°
2026-05-06 05:23 20.74584 -94.60628 35890 ft 445 kts 269°
2026-05-06 05:24 20.74573 -94.67237 35889 ft 445 kts 269°
2026-05-06 05:24 20.74561 -94.73850 35889 ft 445 kts 269°
2026-05-06 05:25 20.74551 -94.80460 35891 ft 445 kts 269°
2026-05-06 05:25 20.74537 -94.87075 35892 ft 445 kts 269°
2026-05-06 05:26 20.74517 -94.93686 35894 ft 445 kts 269°
2026-05-06 05:26 20.74384 -95.00290 35893 ft 444 kts 262°
2026-05-06 05:27 20.73255 -95.06756 35889 ft 443 kts 258°
2026-05-06 05:27 20.72061 -95.13210 35889 ft 443 kts 258°
2026-05-06 05:28 20.70880 -95.19668 35890 ft 443 kts 258°
2026-05-06 05:28 20.69687 -95.26122 35890 ft 443 kts 258°
2026-05-06 05:29 20.68489 -95.32575 35891 ft 443 kts 258°
2026-05-06 05:29 20.67293 -95.39029 35889 ft 443 kts 258°
2026-05-06 05:30 20.66096 -95.45485 35890 ft 443 kts 257°
2026-05-06 05:30 20.65098 -95.50844 35890 ft 443 kts 257°
2026-05-06 05:31 20.63891 -95.57290 35889 ft 443 kts 257°
2026-05-06 05:31 20.62686 -95.63737 35888 ft 443 kts 257°
2026-05-06 05:32 20.61480 -95.70174 35887 ft 442 kts 257°
2026-05-06 05:32 20.60269 -95.76610 35887 ft 442 kts 257°
2026-05-06 05:33 20.59060 -95.83045 35863 ft 442 kts 257°
2026-05-06 05:33 20.57851 -95.89491 35854 ft 442 kts 257°
2026-05-06 05:34 20.56627 -95.95933 35849 ft 443 kts 257°
2026-05-06 05:34 20.55408 -96.02372 35853 ft 443 kts 257°
2026-05-06 05:35 20.54183 -96.08812 35857 ft 443 kts 257°
2026-05-06 05:35 20.52956 -96.15246 35851 ft 443 kts 257°
2026-05-06 05:36 20.51738 -96.21638 35858 ft 442 kts 257°
2026-05-06 05:36 20.50515 -96.28072 35866 ft 442 kts 257°
2026-05-06 05:37 20.49289 -96.34491 35864 ft 442 kts 257°
2026-05-06 05:37 20.48053 -96.40916 35868 ft 442 kts 257°
2026-05-06 05:38 20.46810 -96.47342 35857 ft 442 kts 257°
2026-05-06 05:38 20.45566 -96.53760 35856 ft 442 kts 257°
2026-05-06 05:39 20.44330 -96.60176 35853 ft 442 kts 257°
2026-05-06 05:39 20.43092 -96.66591 35852 ft 442 kts 257°
2026-05-06 05:40 20.41849 -96.72988 35848 ft 441 kts 257°
2026-05-06 05:40 20.40604 -96.79397 35837 ft 441 kts 257°
2026-05-06 05:41 20.39338 -96.85797 35842 ft 441 kts 255°
2026-05-06 05:41 20.37735 -96.92103 35837 ft 440 kts 252°
2026-05-06 05:42 20.35902 -96.98324 35832 ft 440 kts 251°
2026-05-06 05:42 20.34087 -97.04553 35826 ft 440 kts 252°
2026-05-06 05:43 20.32360 -97.10762 35822 ft 440 kts 252°
2026-05-06 05:43 20.30643 -97.17020 35819 ft 440 kts 252°
2026-05-06 05:44 20.28910 -97.23261 35814 ft 440 kts 252°
2026-05-06 05:44 20.27165 -97.29506 35812 ft 440 kts 252°
2026-05-06 05:45 20.25420 -97.35740 35812 ft 440 kts 252°
2026-05-06 05:45 20.23672 -97.41988 35812 ft 440 kts 252°
2026-05-06 05:46 20.21925 -97.48227 35815 ft 440 kts 252°
2026-05-06 05:46 20.20169 -97.54471 35817 ft 440 kts 252°
2026-05-06 05:47 20.18413 -97.60716 35821 ft 440 kts 252°
2026-05-06 05:47 20.16654 -97.66964 35833 ft 440 kts 252°
2026-05-06 05:48 20.14908 -97.73157 35839 ft 440 kts 252°
2026-05-06 05:48 20.14031 -97.76269 35377 ft 439 kts 252°
2026-05-06 05:48 20.13156 -97.79370 35104 ft 437 kts 252°
2026-05-06 05:49 20.12280 -97.82476 34853 ft 439 kts 252°
2026-05-06 05:49 20.11407 -97.85578 34603 ft 438 kts 252°
2026-05-06 05:49 20.10534 -97.88677 34352 ft 436 kts 252°
2026-05-06 05:49 20.09659 -97.91768 34101 ft 435 kts 252°
2026-05-06 05:50 20.08786 -97.94836 33830 ft 431 kts 252°
2026-05-06 05:50 20.07919 -97.97873 33353 ft 428 kts 252°
2026-05-06 05:50 20.07058 -98.00889 32868 ft 425 kts 252°
2026-05-06 05:50 20.06211 -98.03869 32373 ft 422 kts 252°
2026-05-06 05:51 20.05366 -98.06843 31897 ft 419 kts 252°
2026-05-06 05:51 20.04528 -98.09795 31435 ft 416 kts 252°
2026-05-06 05:51 20.03693 -98.12731 30941 ft 413 kts 252°
2026-05-06 05:51 20.02863 -98.15641 30467 ft 410 kts 251°
2026-05-06 05:52 20.02047 -98.18527 30008 ft 407 kts 252°
2026-05-06 05:52 20.01344 -98.21416 29812 ft 401 kts 255°
2026-05-06 05:52 20.00743 -98.24318 29709 ft 403 kts 256°
2026-05-06 05:52 20.00192 -98.27236 29554 ft 403 kts 257°
2026-05-06 05:53 19.99656 -98.30153 29388 ft 402 kts 257°
2026-05-06 05:53 19.99111 -98.33066 29230 ft 402 kts 257°
2026-05-06 05:53 19.98549 -98.35974 29073 ft 402 kts 256°
2026-05-06 05:53 19.97970 -98.38880 28917 ft 402 kts 256°
2026-05-06 05:54 19.97382 -98.41778 28764 ft 402 kts 256°
2026-05-06 05:54 19.96787 -98.44692 28612 ft 401 kts 256°
2026-05-06 05:54 19.96194 -98.47590 28464 ft 401 kts 256°
2026-05-06 05:54 19.95604 -98.50482 28316 ft 401 kts 256°
2026-05-06 05:55 19.95022 -98.53334 28175 ft 400 kts 256°
2026-05-06 05:55 19.94432 -98.56227 28032 ft 400 kts 256°
2026-05-06 05:55 19.93836 -98.59153 27884 ft 399 kts 256°
2026-05-06 05:55 19.93259 -98.61993 27754 ft 399 kts 256°
2026-05-06 05:56 19.92674 -98.64875 27617 ft 398 kts 256°
2026-05-06 05:56 19.92088 -98.67744 27487 ft 398 kts 256°
2026-05-06 05:56 19.91499 -98.70623 27367 ft 398 kts 256°
2026-05-06 05:56 19.90921 -98.73484 27240 ft 398 kts 258°
2026-05-06 05:57 19.90544 -98.76396 26816 ft 401 kts 261°
2026-05-06 05:57 19.90213 -98.79351 26276 ft 401 kts 262°
2026-05-06 05:57 19.89889 -98.82294 25760 ft 401 kts 262°
2026-05-06 05:57 19.89566 -98.85239 25252 ft 400 kts 262°
2026-05-06 05:58 19.89246 -98.88162 24739 ft 400 kts 261°
2026-05-06 05:58 19.89099 -98.91110 24216 ft 400 kts 271°
2026-05-06 05:58 19.89297 -98.94053 23704 ft 400 kts 273°
2026-05-06 05:58 19.89500 -98.96998 23182 ft 399 kts 272°
2026-05-06 05:59 19.89696 -98.99932 22666 ft 398 kts 272°
2026-05-06 05:59 19.89892 -99.02860 22120 ft 397 kts 272°
2026-05-06 05:59 19.90089 -99.05784 21605 ft 395 kts 273°
2026-05-06 05:59 19.90282 -99.08694 21081 ft 394 kts 273°
2026-05-06 06:00 19.90473 -99.11549 20577 ft 391 kts 273°
2026-05-06 06:00 19.90666 -99.14425 20048 ft 389 kts 273°
2026-05-06 06:00 19.90858 -99.17289 19533 ft 387 kts 273°
2026-05-06 06:00 19.91046 -99.20133 19031 ft 385 kts 273°
2026-05-06 06:01 19.91229 -99.22931 18733 ft 376 kts 273°
2026-05-06 06:01 19.91406 -99.25659 18602 ft 364 kts 273°
2026-05-06 06:01 19.91541 -99.28299 18485 ft 352 kts 267°
2026-05-06 06:01 19.91215 -99.30820 18351 ft 340 kts 254°
2026-05-06 06:02 19.90626 -99.33218 18222 ft 331 kts 254°
2026-05-06 06:02 19.90052 -99.35554 18083 ft 323 kts 254°
2026-05-06 06:02 19.89491 -99.37837 17989 ft 317 kts 254°
2026-05-06 06:02 19.88936 -99.40103 18009 ft 317 kts 254°
2026-05-06 06:03 19.88379 -99.42373 18000 ft 317 kts 254°
2026-05-06 06:03 19.87694 -99.44555 18018 ft 316 kts 243°
2026-05-06 06:03 19.86555 -99.46535 18015 ft 313 kts 229°
2026-05-06 06:03 19.84981 -99.48105 17938 ft 308 kts 210°
2026-05-06 06:04 19.83047 -99.48997 17648 ft 302 kts 189°
2026-05-06 06:04 19.80974 -99.49092 17403 ft 298 kts 169°
2026-05-06 06:04 19.79024 -99.48402 17159 ft 295 kts 148°
2026-05-06 06:04 19.77423 -99.47062 16900 ft 293 kts 135°
2026-05-06 06:05 19.75960 -99.45552 16649 ft 294 kts 135°
2026-05-06 06:05 19.74494 -99.44050 16399 ft 293 kts 135°
2026-05-06 06:05 19.73028 -99.42552 16148 ft 293 kts 135°
2026-05-06 06:05 19.71562 -99.41054 15887 ft 292 kts 135°
2026-05-06 06:06 19.70129 -99.39590 15648 ft 288 kts 135°
2026-05-06 06:06 19.68673 -99.38098 15386 ft 286 kts 135°
2026-05-06 06:06 19.67255 -99.36649 15179 ft 281 kts 135°
2026-05-06 06:06 19.65867 -99.35234 14925 ft 279 kts 135°
2026-05-06 06:07 19.64469 -99.33807 14615 ft 279 kts 135°
2026-05-06 06:07 19.63073 -99.32382 14306 ft 278 kts 136°
2026-05-06 06:07 19.61685 -99.30969 14164 ft 272 kts 135°
2026-05-06 06:07 19.60345 -99.29602 14067 ft 263 kts 135°
2026-05-06 06:08 19.58952 -99.28378 13869 ft 260 kts 143°
2026-05-06 06:08 19.57491 -99.27236 13544 ft 262 kts 143°
2026-05-06 06:08 19.56017 -99.26092 13236 ft 263 kts 143°
2026-05-06 06:08 19.54542 -99.24950 12929 ft 263 kts 143°
2026-05-06 06:09 19.52971 -99.23955 12625 ft 264 kts 158°
2026-05-06 06:09 19.51190 -99.23507 12317 ft 264 kts 176°
2026-05-06 06:09 19.49353 -99.23473 12015 ft 264 kts 179°
2026-05-06 06:09 19.47516 -99.23445 11702 ft 264 kts 179°
2026-05-06 06:10 19.45682 -99.23411 11396 ft 264 kts 179°
2026-05-06 06:10 19.43840 -99.23379 11088 ft 264 kts 179°
2026-05-06 06:10 19.42006 -99.23348 10784 ft 264 kts 179°
2026-05-06 06:10 19.40182 -99.23237 10478 ft 262 kts 167°
2026-05-06 06:11 19.38581 -99.22431 10176 ft 251 kts 139°
2026-05-06 06:11 19.37555 -99.21014 9860 ft 238 kts 113°
2026-05-06 06:11 19.37235 -99.19386 9663 ft 215 kts 89°
2026-05-06 06:11 19.37497 -99.17953 9428 ft 187 kts 68°
2026-05-06 06:12 19.38096 -99.16790 9191 ft 173 kts 59°
2026-05-06 06:12 19.38696 -99.15724 8970 ft 169 kts 59°
2026-05-06 06:12 19.39301 -99.14644 8735 ft 167 kts 58°
2026-05-06 06:12 19.39884 -99.13606 8516 ft 166 kts 57°
2026-05-06 06:13 19.40476 -99.12550 8290 ft 166 kts 56°
2026-05-06 06:13 19.41058 -99.11515 8071 ft 164 kts 57°
2026-05-06 06:13 19.41638 -99.10482 7834 ft 163 kts 57°
2026-05-06 06:13 19.42209 -99.09464 7629 ft 162 kts 57°
2026-05-06 06:14 19.42780 -99.08447 7398 ft 161 kts 57°
2026-05-06 06:14 19.43350 -99.07443 7304 ft 146 kts 58°
2026-05-06 06:14 19.43708 -99.06798 7303 ft 60 kts 60°
2026-05-06 06:14 19.43779 -99.06666 7303 ft 1 kts 59°
2026-05-06 06:15 19.43786 -99.06655 7303 ft 3 kts 59°
2026-05-06 06:15 19.43807 -99.06618 7303 ft 8 kts 58°
2026-05-06 06:15 19.43854 -99.06557 7303 ft 13 kts 41°
2026-05-06 06:15 19.43938 -99.06493 7303 ft 17 kts 29°
2026-05-06 06:16 19.44054 -99.06424 7303 ft 21 kts 29°
2026-05-06 06:16 19.44200 -99.06344 7303 ft 25 kts 26°
2026-05-06 06:16 19.44356 -99.06289 7303 ft 22 kts 355°
2026-05-06 06:16 19.44387 -99.06380 7303 ft 5 kts 244°
2026-05-06 06:17 19.44369 -99.06417 7303 ft 6 kts 242°
2026-05-06 06:17 19.44346 -99.06462 7303 ft 8 kts 239°
2026-05-06 06:17 19.44315 -99.06516 7303 ft 9 kts 237°
2026-05-06 06:17 19.44279 -99.06577 7303 ft 11 kts 237°
2026-05-06 06:18 19.44237 -99.06647 7303 ft 12 kts 237°
2026-05-06 06:18 19.44191 -99.06723 7303 ft 13 kts 237°
2026-05-06 06:18 19.44143 -99.06809 7303 ft 14 kts 241°
2026-05-06 06:18 19.44094 -99.06905 7303 ft 16 kts 241°
2026-05-06 06:19 19.44039 -99.07008 7303 ft 17 kts 238°
2026-05-06 06:19 19.43997 -99.07079 7303 ft 9 kts 238°
2026-05-06 06:19 19.43963 -99.07139 7303 ft 10 kts 239°
2026-05-06 06:19 19.43938 -99.07184 7303 ft 11 kts 239°
2026-05-06 06:20 19.43935 -99.07189 7303 ft 11 kts 239°
2026-05-06 06:20 19.43927 -99.07203 7303 ft 11 kts 239°
2026-05-06 06:20 19.43895 -99.07260 7303 ft 6 kts 239°
2026-05-06 06:21 19.43876 -99.07294 7303 ft 7 kts 239°
2026-05-06 06:22 19.43848 -99.07343 7303 ft 8 kts 239°
2026-05-06 06:22 19.43815 -99.07401 7303 ft 10 kts 239°
2026-05-06 06:22 19.43778 -99.07468 7303 ft 11 kts 239°
2026-05-06 06:22 19.43735 -99.07544 7303 ft 13 kts 239°
2026-05-06 06:23 19.43687 -99.07629 7303 ft 14 kts 239°
2026-05-06 06:23 19.43635 -99.07722 7303 ft 15 kts 239°
2026-05-06 06:23 19.43578 -99.07823 7303 ft 17 kts 239°
2026-05-06 06:23 19.43516 -99.07933 7303 ft 18 kts 239°
2026-05-06 06:24 19.43450 -99.08050 7303 ft 19 kts 239°
2026-05-06 06:24 19.43381 -99.08176 7303 ft 20 kts 239°
2026-05-06 06:24 19.43307 -99.08307 7303 ft 21 kts 239°
2026-05-06 06:24 19.43251 -99.08403 7303 ft 3 kts 246°
2026-05-06 06:25 19.43255 -99.08426 7303 ft 3 kts 295°
2026-05-06 06:25 19.43264 -99.08435 7303 ft 0 kts 322°
2026-05-06 06:25 19.43280 -99.08446 7303 ft 3 kts 327°
2026-05-06 06:26 19.43299 -99.08459 7303 ft 4 kts 327°
2026-05-06 06:26 19.43307 -99.08465 7303 ft 1 kts 327°
2026-05-06 06:26 19.43315 -99.08469 7303 ft 2 kts 330°
2026-05-06 06:26 19.43318 -99.08471 7303 ft 0 kts 330°